Location: Ozark
(37.5425°N, 88.7628°W)
Time: 09:48:30
(UTC+00:00)

USA 215 - Pass Details

Date: 26 January 2020
Orbit: 1098 x 1110 km, 123.0° (Epoch: 21 February)

Event Time Altitude Azimuth Distance (km) Brightness Sun altitude
Rises 12:11:17 0° 129° (SE) 3,900 7.5 -10.6°
Reaches altitude 10° 12:13:45 10° 128° (SE) 2,946 6.7 -10.1°
Maximum altitude 12:20:15 80° 43° (NE) 1,119 3.4 -8.9°
Drops below altitude 10° 12:26:48 10° 317° (NW) 2,965 5.0 -7.6°
Enters shadow 12:28:17 - 317° (NW) 3,533 5.4 -7.4°
